星链-32468 (STARLINK-32468)

导读 | 星芒AI

STARLINK-32468 是 SpaceX Starlink 项目中的一颗低轨通信卫星,属于该星座的第二批部署任务。该卫星于2023年发射,旨在为全球用户提供高速互联网服务。它运行在约550公里高的近地轨道,采用先进的相控阵天线和激光通信技术,以提高网络效率和稳定性。Starlink 卫星群致力于改善偏远地区的网络接入,同时支持应急通信和商业应用。STARLINK-32468 的部署进一步增强了 Starlink 网络的覆盖范围和性能。

基本信息
目录编号:
62149
目录名称:
STARLINK-32468
国际标识:
2024-224L
轨道中心:
EARTH
卫星名称:
星链-32468
卫星全名:
星链-32468 (STARLINK-32468)
卫星状态:
在轨 (已飞行385 天)
发射日期:
2024-11-30 UTC
国别 :
美国 (US)
星等 :
--
轨道信息
数据来源 国际轨道数据 AOE轨道数据
星历时间 2025-12-18T18:26:30+0800
1天前
查看轨道信息
2025-12-17T21:00:00+0800
2天前
查看轨道信息
半长轴 6861.143km 6861.198km
偏心率 0.0001131 0.0001683
轨道倾角 42.998° 43.000°
近地点辐角 291.138° 266.104°
升交点赤经 256.946° 261.995°
平近点角 68.935° 215.086°
近地点 482.232km 481.908km
远地点 483.784km 484.218km
周期 94.266分钟 94.267分钟
每日圈数 15.275947 15.275761
详细信息
固有亮度:
5
最大亮度:
2.5
卫星平台:
Starlink V1.0
覆盖范围:
全球
运营商:
太空探索技术公司
运营商所在国:
美国
制造商(研发单位):
太空探索技术公司
制造商所在国:
美国
使用方式:
暂无
卫星简介
Starlink 计划是 SpaceX 推出的全球卫星互联网项目,通过发射低轨道卫星,为全球尤其是偏远地区提供高速、低延迟的互联网服务。自 2019 年起,Starlink 已部署数千颗卫星,旨在缩小全球数字鸿沟,推动互联网普及。该项目还为军事、航空等行业提供通信支持,带来广泛经济效益。
2D轨道图
3D轨道图
轨道高度分析图
轨道倾角分析图
轨道综合分析图
查看轨道综合分析图